This is the latest recevied weather packets stored in our database for station/object DO8TBO-15. If no packets are shown the sender has not sent any weather packets the latest 10 day(s).
| Time | Temp. | Humidity | Pressure | Rain* | Wind** | Luminosity | Snow |
|---|---|---|---|---|---|---|---|
| 1777856147 | 14.44° C | - | 1013.7 hPa | 0 mm | - | - | - |
| 1777855544 | 14.44° C | - | 1013.8 hPa | 0 mm | - | - | - |
| 1777854940 | 15.56° C | - | 1013.9 hPa | 0 mm | - | - | - |
| 1777854336 | 16.11° C | - | 1013.9 hPa | 0 mm | - | - | - |
| 1777853732 | 16.67° C | - | 1013.8 hPa | 0 mm | - | - | - |
| 1777853129 | 17.22° C | - | 1013.6 hPa | 0 mm | - | - | - |
| 1777852525 | 17.22° C | - | 1013.6 hPa | 0 mm | - | - | - |
| 1777851921 | 17.22° C | - | 1013.6 hPa | 0 mm | - | - | - |
| 1777851318 | 17.22° C | - | 1013.6 hPa | 0 mm | - | - | - |
| 1777850774 | 17.22° C | - | 1013.6 hPa | 0 mm | - | - | - |
| 1777850170 | 17.22° C | - | 1013.8 hPa | 0 mm | - | - | - |
| 1777849567 | 16.11° C | - | 1013.6 hPa | 0 mm | - | - | - |
| 1777848962 | 16.67° C | - | 1013.4 hPa | 0 mm | - | - | - |
| 1777848359 | 17.22° C | - | 1013.1 hPa | 0 mm | - | - | - |
| 1777847756 | 16.67° C | - | 1013.2 hPa | 0 mm | - | - | - |
| 1777847151 | 15.56° C | - | 1013.4 hPa | 0 mm | - | - | - |
| 1777846547 | 15° C | - | 1013.5 hPa | 0 mm | - | - | - |
| 1777845944 | 14.44° C | - | 1013.3 hPa | 0 mm | - | - | - |
| 1777845340 | 14.44° C | - | 1013.3 hPa | 0 mm | - | - | - |
| 1777844736 | 14.44° C | - | 1013.1 hPa | 0 mm | - | - | - |
| 1777844132 | 14.44° C | - | 1013 hPa | 0 mm | - | - | - |
| 1777843559 | 15° C | - | 1012.9 hPa | 0 mm | - | - | - |
| 1777842955 | 15.56° C | - | 1012.8 hPa | 0 mm | - | - | - |
| 1777842351 | 15.56° C | - | 1012.8 hPa | 0 mm | - | - | - |
| 1777841747 | 15.56° C | - | 1012.6 hPa | 0 mm | - | - | - |
* Rain latest hour (hover to see other rain measurements)
** Current wind speed in m/s (hover to see current wind gust speed)